sat.trackr.live / text

‹ back to catalog

STARLINK-2225

NORAD 48574 · 2021-041X

PAYLOAD ACTIVE UNKNOWN

§ Identity

Operator
Country
US
Launch date
2021-05-15
Launch site
AFETR
Launch vehicle
Mass (kg)
RCS (m²)

Purposes: comms

External: N2YO · Heavens-Above · Gunter

§ Orbital elements

Epoch: 2026-09-09T11:20:44.353248Z

Period
94.01 min
Inclination
53.1595°
Eccentricity
0.0001049
Mean motion
15.31713757 rev/d
Perigee alt
470.0 km
Apogee alt
471.4 km
Semi-major
6,848.8 km
B*
1.2080e-4
RAAN
325.7036°
Arg perigee
81.0534°
Mean anomaly
279.0586°
Rev number
29,379

§ Raw data

STARLINK-22251 48574U 21041X   26252.47273557  .00003387  00000+0  12080-3 0  99972 48574  53.1595 325.7036 0001049  81.0534 279.0586 15.31713757293796

JSON: /api/v1/satellites/48574 · /tle

For live sub-satellite position, see the globe view (requires WebGL).

§ Visibility from observer

Set your observer location to see the next 7 days of passes ≥ 10°. The values pass through the URL so the page stays shareable.

No JS? Fill the form by hand. The geolocation button needs JavaScript.